Regional Weather Roundup
Issued by NWS

Home | Current Version | Previous Version | Graphics & Text | Print | Product List | Glossary Off
Versions: 1 2 3 4 5 6 7 8 9 10 11 12 13 14 15 16 17 18 19 20 21 22 23 24 25 26 27 28 29 30 31 32 33 34 35 36 37 38 39 40 41 42 43 44 45 46 47 48 49 50

000
ASUS43 KDMX 230206
RWRIA

WEATHER ROUNDUP FOR IOWA
NATIONAL WEATHER SERVICE DES MOINES IA
900 PM CDT WED MAR 22 2017

NOTE: "FAIR" INDICATES FEW OR NO CLOUDS BELOW 12,000 FEET WITH NO
SIGNIFICANT WEATHER AND/OR OBSTRUCTIONS TO VISIBILITY.

* - THESE STATIONS ARE NOT NWS STATIONS...THUS NOT UNDER NWS
QUALITY CONTROL.  THEY ALSO DO NOT REPORT WEATHER SUCH
AS PRECIPITATION OR FOG.

IAZ001>003-012>014-020>022-031>034-043>046-230300-
   NORTHWEST IOWA

CITY           SKY/WX    TMP DP  RH WIND       PRES   REMARKS
CHEROKEE *     CLOUDY    38  25  59 SE8       30.20S WCI  32
SIOUX CITY     CLOUDY    42  29  59 SE15      30.16S
SPENCER        CLOUDY    38  23  55 SE15      30.21S WCI  29
$$

IAZ055>058-069>071-079>083-090>094-230300-
   SOUTHWEST IOWA

CITY           SKY/WX    TMP DP  RH WIND       PRES   REMARKS
LAMONI         MOCLDY    42  21  43 SE8       30.26S
$$

IAZ047>049-059>061-072>074-084-230300-
   CENTRAL IOWA

CITY           SKY/WX    TMP DP  RH WIND       PRES   REMARKS
AMES           CLOUDY    42  22  44 SE13      30.28F
GRINNELL*      CLOUDY    40  19  43 E16       30.32F WCI  31
MARSHALLTOWN   CLOUDY    40  18  41 SE17      30.30F WCI  31
PELLA *        CLOUDY    41  20  43 SE14      30.32S
$$

IAZ004>006-015-016-023>025-035-036-230300-
   NORTH CENTRAL IOWA

CITY           SKY/WX    TMP DP  RH WIND       PRES   REMARKS
ESTHERVILLE    CLOUDY    34  27  75 SE15      30.22S WCI  24
MASON CITY     CLOUDY    36  20  52 SE12      30.29F WCI  28
$$

IAZ007>011-017>019-026>030-037>042-050>054-066-230300-
   NORTHEAST IOWA

CITY           SKY/WX    TMP DP  RH WIND       PRES   REMARKS
CEDAR RAPIDS   CLOUDY    38  21  50 SE13      30.35F WCI  30
CHARLES CITY * CLOUDY    37  16  41 SE13      30.32F WCI  29
DUBUQUE        CLOUDY    37  20  50 SE6       30.39F WCI  32
$$

IAZ064-065-067-068-078-230300-
   EAST CENTRAL IOWA

CITY           SKY/WX    TMP DP  RH WIND       PRES   REMARKS
DAVENPORT      CLOUDY    38  21  50 SE14      30.41F WCI  30
IOWA CITY      PTCLDY    41  21  44 E9G18     30.40S
QUAD CITIES    CLOUDY    39  22  50 SE10      30.41F WCI  32
$$

IAZ062-063-075>077-085>089-095>099-230300-
   SOUTHEAST IOWA

CITY           SKY/WX    TMP DP  RH WIND       PRES   REMARKS
BURLINGTON     CLOUDY    41  17  38 SE14      30.38S
CENTERVILLE *    N/A     39  18  41 CALM      30.32R
OTTUMWA        CLOUDY    41  17  38 SE12      30.33S
$$

ABBREVIATIONS USED IN REMARKS
   TC - TEMPERATURES IN CELSIUS
  WCI - WIND CHILL INDEX
   HX - HEAT INDEX
  VSB - VISIBILITY
$$




USA.gov is the U.S. government's official web portal to all federal, state and local government web resources and services.